KUIPER-00083

Last updated on Sat Aug 16 2025 00:02:06 GMT+0000 (Coordinated Universal Time)

1 64829U 25151P 25227.46843900 .00029272 00000+0 83657-3 0 9998 2 64829 51.8786 142.0290 0005178 253.9034 106.1383 15.35743277 5822
UTC large
Height (km)
Speed (km/s)
/
Latitude / Longitude
Inclination (degrees)
Orbital Period (minutes)
Azimuth
Elevation
Range (km)
Doppler Factor

Next 0 passes for location: London (51.5072 / 0.1276)

Sorry there are no passes over London.
KUIPER-00083